Location: Azalea Creek
(37.1280°N, 119.2623°W)
Time: 16:50:32
(UTC+00:00)

STARLINK-46 - Pass Details

Date: 17 February 2020
Orbit: 153 x 180 km, 53.0° (Epoch: 21 February)

Event Time Altitude Azimuth Distance (km) Brightness Sun altitude
Rises 02:04:23 0° 324° (NW) 1,502 6.2 -6.0°
Reaches altitude 10° 02:06:18 10° 345° (NNW) 748 4.4 -6.4°
Maximum altitude 02:07:36 19° 37° (NE) 470 2.9 -6.6°
Enters shadow 02:08:45 11° 88° (E) 693 3.5 -6.9°
